Regional Weather Roundup
Issued by NWS

Home | Current Version | Previous Version | Graphics & Text | Print | Product List | Glossary On
Versions: 1 2 3 4 5 6 7 8 9 10 11 12 13 14 15 16 17 18 19 20 21 22 23 24 25 26 27 28 29 30 31 32 33 34 35 36 37 38 39 40 41 42 43 44 45 46 47 48 49 50
000
ASUS43 KBIS 062002
RWRND

NORTH DAKOTA REGIONAL WEATHER ROUNDUP
NATIONAL WEATHER SERVICE BISMARCK ND
200 PM CST SAT FEB 06 2016

NOTE: "FAIR" INDICATES FEW OR NO CLOUDS BELOW 12,000 FEET WITH NO
SIGNIFICANT WEATHER AND/OR OBSTRUCTIONS TO VISIBILITY.


NDZ001>003-009>011-017-062100-
NORTHWEST NORTH DAKOTA

CITY           SKY/WX    TMP DP  RH WIND       PRES   REMARKS
WILLISTON      CLOUDY    48  27  44 W24G39    29.65F
MINOT          CLOUDY    50  26  39 SW16      29.60F
MINOT AFB      CLOUDY    49  29  45 W20G29    29.58F
$$

NDZ018>021-031>035-040>046-062100-
SOUTHWEST NORTH DAKOTA

CITY           SKY/WX    TMP DP  RH WIND       PRES   REMARKS
BISMARCK       CLOUDY    51  28  41 SW9       29.70F
DICKINSON      CLOUDY    47  23  38 W14       29.71F
GARRISON         N/A     47  27  45 W16       29.64F
HETTINGER ARPT CLOUDY    52  21  29 W18G29    29.78F
$$

NDZ004>008-012>016-024-026-027-054-062100-
NORTHEAST NORTH DAKOTA

CITY           SKY/WX    TMP DP  RH WIND       PRES   REMARKS
GRAND FORKS    CLOUDY    38  30  73 S13       29.65F
GRND FRKS AFB  CLOUDY    39  30  69 SW8       29.63F
DEVILS LAKE    CLOUDY    40  30  67 SW13      29.61F
$$

NDZ022-023-025-028>030-036>039-047>053-062100-
SOUTHEAST NORTH DAKOTA

CITY           SKY/WX    TMP DP  RH WIND       PRES   REMARKS
FARGO          CLOUDY    38  29  70 S15       29.72F
JAMESTOWN      CLOUDY    41  30  65 SW10      29.66F
$$




USA.gov is the U.S. government's official web portal to all federal, state and local government web resources and services.